Regional Weather Roundup
Issued by NWS

Home | Current Version | Previous Version | Text Only | Print | Product List | Glossary On
Versions: 1 2 3 4 5 6 7 8 9 10 11 12 13 14 15 16 17 18 19 20 21 22 23 24 25 26 27
000
ASUS42 KKEY 240310
RWRKEY

FLORIDA REGIONAL WEATHER ROUNDUP FOR THE FLORIDA KEYS
NATIONAL WEATHER SERVICE KEY WEST FLORIDA
1000 PM EST MON JAN 23 2017

...SOUTH FLORIDA AND THE KEYS...

CITY           SKY/WX    TMP DP  RH WIND       PRES   REMARKS
FORT MYERS     MOCLDY    69  59  70 NW13G23   29.76R
SW REGIONAL AP PTCLDY    68  57  68 NW12      29.77R
NAPLES         CLOUDY    70  58  65 NW20G33   29.77R
MIAMI          PTCLDY    69  59  70 W10G20    29.75R
WEST KENDALL   PTCLDY    64  58  80 W10       29.76R
HOMESTEAD      CLEAR     66  62  85 W9        29.76R
MARATHON       PTCLDY    74  60  61 W18G36    29.80R
BOCA CHICA NAS PTCLDY    72  60  66 NW21G30   29.82R
KEY WEST INTL  NOT AVBL

...INTERNATIONAL WEATHER...

CITY           SKY/WX    TMP DP  RH WIND       PRES   REMARKS
NASSAU BAHAMAS NOT AVBL
CANCUN MEXICO  CLEAR     63  57  82 W3        29.98R
COZUMEL MEXICO CLEAR     73  59  60 N17       29.98R

ADJACENT COASTAL WATERS...

STATION/POSITION TIME  SKY/WX   TEMP    WIND        PRES    WAVE
                                AIR SEA DIR/SP/G            HT/PER
                 (UTC)          (F)     (DEG/KT/KT) (MB)    (FT/S)
PULASKI SHOAL LI 0300            73     300/ 22/ 24 1010.0R
SAND KEY         0250            73     320/ 27/ 32 1010.3R
LONG KEY         0200            72 73  300/ 27/ 30 1008.4R
MOLASSES REEF    NOT AVBL
FOWEY ROCKS      0200            69 74  280/ 26/ 29 1007.3R

$$




USA.gov is the U.S. government's official web portal to all federal, state and local government web resources and services.